Time,TemperatureF,DewpointF,PressureIn,WindDirection,WindDirectionDegrees,WindSpeedMPH,WindSpeedGustMPH,Humidity,HourlyPrecipIn,Conditions,Clouds,dailyrainin,SoftwareType,DateUTC
2013-10-31 00:02:00,52.7,13.8,30.03,North,-999,0.0,2.7,21,0.00,,,-99.99,FreeWX-Wi 1.02,2013-10-31 07:02:00,
2013-10-31 00:07:00,52.9,14.0,30.03,North,-999,0.0,2.7,21,0.00,,,-99.99,FreeWX-Wi 1.02,2013-10-31 07:07:00,
2013-10-31 00:12:00,52.9,14.0,30.03,North,-999,0.0,2.7,21,0.00,,,-99.99,FreeWX-Wi 1.02,2013-10-31 07:12:00,
2013-10-31 00:17:00,53.1,14.2,30.03,NNE,30,1.0,3.1,21,0.00,,,-99.99,FreeWX-Wi 1.02,2013-10-31 07:17:00,
2013-10-31 00:22:00,53.2,14.4,30.06,NNE,30,1.0,3.1,21,0.00,,,-99.99,FreeWX-Wi 1.02,2013-10-31 07:22:00,
2013-10-31 00:27:00,53.1,14.2,30.06,NNE,30,1.0,2.7,21,0.00,,,-99.99,FreeWX-Wi 1.02,2013-10-31 07:27:00,
2013-10-31 00:32:00,52.7,13.8,30.06,NNE,30,1.0,2.7,21,0.00,,,-99.99,FreeWX-Wi 1.02,2013-10-31 07:32:00,
2013-10-31 00:37:00,52.5,13.8,30.06,NNE,30,1.0,2.7,21,0.00,,,-99.99,FreeWX-Wi 1.02,2013-10-31 07:37:00,
2013-10-31 00:42:00,54.0,13.8,30.06,NNE,30,2.0,5.4,20,0.00,,,-99.99,FreeWX-Wi 1.02,2013-10-31 07:42:00,
2013-10-31 00:47:00,56.5,16.0,30.06,NNE,29,2.0,5.8,20,0.00,,,-99.99,FreeWX-Wi 1.02,2013-10-31 07:47:00,
2013-10-31 00:52:00,56.3,15.8,30.03,NNE,29,2.0,4.0,20,0.00,,,-99.99,FreeWX-Wi 1.02,2013-10-31 07:52:00,
2013-10-31 00:57:00,55.9,15.4,30.03,NNE,28,2.0,3.1,20,0.00,,,-99.99,FreeWX-Wi 1.02,2013-10-31 07:57:00,
2013-10-31 01:02:00,55.0,14.7,30.03,NNE,28,2.0,3.1,20,0.00,,,-99.99,FreeWX-Wi 1.02,2013-10-31 08:02:00,
2013-10-31 01:07:00,55.4,15.1,30.06,NNE,28,2.0,5.8,20,0.00,,,-99.99,FreeWX-Wi 1.02,2013-10-31 08:07:00,
2013-10-31 01:12:00,56.5,16.0,30.06,NNE,28,2.0,6.3,20,0.00,,,-99.99,FreeWX-Wi 1.02,2013-10-31 08:12:00,
2013-10-31 01:17:00,56.7,16.0,30.06,NNE,28,2.0,5.8,20,0.00,,,-99.99,FreeWX-Wi 1.02,2013-10-31 08:17:00,
2013-10-31 01:22:00,57.4,15.4,30.06,NNE,28,3.0,6.3,19,0.00,,,-99.99,FreeWX-Wi 1.02,2013-10-31 08:22:00,
2013-10-31 01:27:00,57.6,15.6,30.06,NNE,27,3.0,4.9,19,0.00,,,-99.99,FreeWX-Wi 1.02,2013-10-31 08:27:00,
2013-10-31 01:32:00,56.3,15.8,30.06,NNE,27,3.0,3.0,20,0.00,,,-99.99,FreeWX-Wi 1.02,2013-10-31 08:32:00,
2013-10-31 01:37:00,54.5,14.2,30.06,NNE,26,2.0,0.0,20,0.00,,,-99.99,FreeWX-Wi 1.02,2013-10-31 08:37:00,
2013-10-31 01:42:00,53.1,14.2,30.06,NNE,24,1.0,0.0,21,0.00,,,-99.99,FreeWX-Wi 1.02,2013-10-31 08:42:00,
2013-10-31 01:47:00,52.3,13.6,30.06,NNE,23,1.0,4.0,21,0.00,,,-99.99,FreeWX-Wi 1.02,2013-10-31 08:47:00,
2013-10-31 01:52:00,54.7,14.4,30.06,North,-999,0.0,6.3,20,0.00,,,-99.99,FreeWX-Wi 1.02,2013-10-31 08:52:00,
2013-10-31 01:57:00,55.2,14.9,30.06,NNE,23,1.0,5.4,20,0.00,,,-99.99,FreeWX-Wi 1.02,2013-10-31 08:57:00,
2013-10-31 02:02:00,53.6,13.5,30.06,NNE,24,1.0,3.1,20,0.00,,,-99.99,FreeWX-Wi 1.02,2013-10-31 09:02:00,
2013-10-31 02:07:00,52.9,14.0,30.06,NNE,24,1.0,3.1,21,0.00,,,-99.99,FreeWX-Wi 1.02,2013-10-31 09:07:00,
2013-10-31 02:12:00,52.5,13.8,30.06,NNE,24,1.0,0.0,21,0.00,,,-99.99,FreeWX-Wi 1.02,2013-10-31 09:12:00,
2013-10-31 02:17:00,52.3,13.6,30.06,NNE,25,1.0,0.0,21,0.00,,,-99.99,FreeWX-Wi 1.02,2013-10-31 09:17:00,
2013-10-31 02:22:00,51.8,13.1,30.06,North,-999,0.0,0.0,21,0.00,,,-99.99,FreeWX-Wi 1.02,2013-10-31 09:22:00,
2013-10-31 02:27:00,51.6,12.9,30.06,North,-999,0.0,4.0,21,0.00,,,-99.99,FreeWX-Wi 1.02,2013-10-31 09:27:00,
2013-10-31 02:32:00,52.0,13.3,30.06,North,-999,0.0,3.6,21,0.00,,,-99.99,FreeWX-Wi 1.02,2013-10-31 09:32:00,
2013-10-31 02:37:00,51.6,12.9,30.06,North,-999,0.0,2.2,21,0.00,,,-99.99,FreeWX-Wi 1.02,2013-10-31 09:37:00,
2013-10-31 02:42:00,51.3,12.7,30.06,North,-999,0.0,0.0,21,0.00,,,-99.99,FreeWX-Wi 1.02,2013-10-31 09:42:00,
2013-10-31 02:47:00,50.7,12.2,30.06,North,-999,0.0,2.2,21,0.00,,,-99.99,FreeWX-Wi 1.02,2013-10-31 09:47:00,
2013-10-31 02:52:00,50.5,12.0,30.06,North,-999,0.0,3.1,21,0.00,,,-99.99,FreeWX-Wi 1.02,2013-10-31 09:52:00,
2013-10-31 02:57:00,50.9,12.4,30.06,North,-999,0.0,2.7,21,0.00,,,-99.99,FreeWX-Wi 1.02,2013-10-31 09:57:00,
2013-10-31 03:02:00,50.9,12.4,30.06,North,-999,0.0,0.0,21,0.00,,,-99.99,FreeWX-Wi 1.02,2013-10-31 10:02:00,
2013-10-31 03:07:00,50.7,12.2,30.06,North,-999,0.0,0.0,21,0.00,,,-99.99,FreeWX-Wi 1.02,2013-10-31 10:07:00,
2013-10-31 03:12:00,50.5,12.0,30.06,North,-999,0.0,0.0,21,0.00,,,-99.99,FreeWX-Wi 1.02,2013-10-31 10:12:00,
2013-10-31 03:17:00,50.4,11.8,30.06,North,-999,0.0,2.7,21,0.00,,,-99.99,FreeWX-Wi 1.02,2013-10-31 10:17:00,
2013-10-31 03:22:00,50.2,11.8,30.06,North,-999,0.0,3.1,21,0.00,,,-99.99,FreeWX-Wi 1.02,2013-10-31 10:22:00,
2013-10-31 03:27:00,50.2,11.8,30.06,North,-999,0.0,0.0,21,0.00,,,-99.99,FreeWX-Wi 1.02,2013-10-31 10:27:00,
2013-10-31 03:32:00,49.8,11.5,30.06,North,-999,0.0,0.0,21,0.00,,,-99.99,FreeWX-Wi 1.02,2013-10-31 10:32:00,
2013-10-31 03:37:00,49.5,11.1,30.06,North,-999,0.0,0.0,21,0.00,,,-99.99,FreeWX-Wi 1.02,2013-10-31 10:37:00,
2013-10-31 03:42:00,49.1,10.9,30.06,North,-999,0.0,0.0,21,0.00,,,-99.99,FreeWX-Wi 1.02,2013-10-31 10:42:00,
2013-10-31 03:47:00,49.3,10.9,30.06,North,-999,0.0,2.7,21,0.00,,,-99.99,FreeWX-Wi 1.02,2013-10-31 10:47:00,
2013-10-31 03:52:00,49.1,10.9,30.06,North,-999,0.0,2.2,21,0.00,,,-99.99,FreeWX-Wi 1.02,2013-10-31 10:52:00,
2013-10-31 03:57:00,48.9,10.8,30.06,North,-999,0.0,2.2,21,0.00,,,-99.99,FreeWX-Wi 1.02,2013-10-31 10:57:00,
2013-10-31 04:02:00,48.7,10.6,30.06,North,-999,0.0,3.1,21,0.00,,,-99.99,FreeWX-Wi 1.02,2013-10-31 11:02:00,
2013-10-31 04:08:00,48.7,10.6,30.03,NNE,25,1.0,3.1,21,0.00,,,-99.99,FreeWX-Wi 1.02,2013-10-31 11:08:00,
2013-10-31 04:13:00,48.4,10.2,30.03,NNE,25,1.0,2.2,21,0.00,,,-99.99,FreeWX-Wi 1.02,2013-10-31 11:13:00,
2013-10-31 04:18:00,48.2,10.0,30.03,North,-999,0.0,3.1,21,0.00,,,-99.99,FreeWX-Wi 1.02,2013-10-31 11:18:00,
2013-10-31 04:23:00,48.2,10.0,30.06,North,-999,0.0,0.0,21,0.00,,,-99.99,FreeWX-Wi 1.02,2013-10-31 11:23:00,
2013-10-31 04:28:00,47.8,10.9,30.06,North,-999,0.0,0.0,22,0.00,,,-99.99,FreeWX-Wi 1.02,2013-10-31 11:28:00,
2013-10-31 04:33:00,47.3,10.4,30.06,North,-999,0.0,0.0,22,0.00,,,-99.99,FreeWX-Wi 1.02,2013-10-31 11:33:00,
2013-10-31 04:38:00,47.1,10.2,30.06,North,-999,0.0,0.0,22,0.00,,,-99.99,FreeWX-Wi 1.02,2013-10-31 11:38:00,
2013-10-31 04:43:00,47.3,10.4,30.06,North,-999,0.0,0.0,22,0.00,,,-99.99,FreeWX-Wi 1.02,2013-10-31 11:43:00,
2013-10-31 04:48:00,47.5,10.6,30.06,North,-999,0.0,0.0,22,0.00,,,-99.99,FreeWX-Wi 1.02,2013-10-31 11:48:00,
2013-10-31 04:53:00,47.5,10.6,30.06,North,-999,0.0,0.0,22,0.00,,,-99.99,FreeWX-Wi 1.02,2013-10-31 11:53:00,
2013-10-31 04:58:00,47.3,10.4,30.06,North,-999,0.0,0.0,22,0.00,,,-99.99,FreeWX-Wi 1.02,2013-10-31 11:58:00,
2013-10-31 05:03:00,47.1,10.2,30.06,North,-999,0.0,0.0,22,0.00,,,-99.99,FreeWX-Wi 1.02,2013-10-31 12:03:00,
2013-10-31 05:08:00,46.8,10.0,30.06,North,-999,0.0,3.6,22,0.00,,,-99.99,FreeWX-Wi 1.02,2013-10-31 12:08:00,
2013-10-31 05:13:00,46.6,9.9,30.06,North,-999,0.0,3.1,22,0.00,,,-99.99,FreeWX-Wi 1.02,2013-10-31 12:13:00,
2013-10-31 05:18:00,46.8,10.0,30.06,North,-999,0.0,3.6,22,0.00,,,-99.99,FreeWX-Wi 1.02,2013-10-31 12:18:00,
2013-10-31 05:23:00,46.8,10.0,30.06,North,-999,0.0,2.7,22,0.00,,,-99.99,FreeWX-Wi 1.02,2013-10-31 12:23:00,
2013-10-31 05:28:00,46.8,10.0,30.06,NNE,25,1.0,3.6,22,0.00,,,-99.99,FreeWX-Wi 1.02,2013-10-31 12:28:00,
2013-10-31 05:33:00,46.6,9.9,30.06,NNE,25,1.0,3.1,22,0.00,,,-99.99,FreeWX-Wi 1.02,2013-10-31 12:33:00,
2013-10-31 05:38:00,46.6,9.9,30.06,NNE,25,1.0,2.7,22,0.00,,,-99.99,FreeWX-Wi 1.02,2013-10-31 12:38:00,
2013-10-31 05:43:00,46.6,9.9,30.06,NNE,25,1.0,0.0,22,0.00,,,-99.99,FreeWX-Wi 1.02,2013-10-31 12:43:00,
2013-10-31 05:48:00,46.6,9.9,30.06,North,-999,0.0,0.0,22,0.00,,,-99.99,FreeWX-Wi 1.02,2013-10-31 12:48:00,
2013-10-31 05:53:00,46.4,9.7,30.06,North,-999,0.0,0.0,22,0.00,,,-99.99,FreeWX-Wi 1.02,2013-10-31 12:53:00,
2013-10-31 05:58:00,46.6,9.9,30.06,North,-999,0.0,0.0,22,0.00,,,-99.99,FreeWX-Wi 1.02,2013-10-31 12:58:00,
2013-10-31 06:03:00,46.6,9.9,30.06,North,-999,0.0,0.0,22,0.00,,,-99.99,FreeWX-Wi 1.02,2013-10-31 13:03:00,
2013-10-31 06:08:00,46.6,9.9,30.06,North,-999,0.0,0.0,22,0.00,,,-99.99,FreeWX-Wi 1.02,2013-10-31 13:08:00,
2013-10-31 06:13:00,46.8,10.0,30.06,North,-999,0.0,2.7,22,0.00,,,-99.99,FreeWX-Wi 1.02,2013-10-31 13:13:00,
2013-10-31 06:18:00,46.9,10.0,30.06,North,-999,0.0,3.1,22,0.00,,,-99.99,FreeWX-Wi 1.02,2013-10-31 13:18:00,
2013-10-31 06:23:00,46.9,10.0,30.06,North,-999,0.0,2.7,22,0.00,,,-99.99,FreeWX-Wi 1.02,2013-10-31 13:23:00,
2013-10-31 06:28:00,46.8,10.0,30.06,North,-999,0.0,3.1,22,0.00,,,-99.99,FreeWX-Wi 1.02,2013-10-31 13:28:00,
2013-10-31 06:33:00,46.8,10.0,30.06,North,-999,0.0,4.9,22,0.00,,,-99.99,FreeWX-Wi 1.02,2013-10-31 13:33:00,
2013-10-31 06:38:00,47.3,10.4,30.06,NNE,26,1.0,4.9,22,0.00,,,-99.99,FreeWX-Wi 1.02,2013-10-31 13:38:00,
2013-10-31 06:43:00,47.8,10.9,30.06,NNE,28,1.0,0.0,22,0.00,,,-99.99,FreeWX-Wi 1.02,2013-10-31 13:43:00,
2013-10-31 06:48:00,47.7,10.8,30.06,NNE,29,1.0,3.1,22,0.00,,,-99.99,FreeWX-Wi 1.02,2013-10-31 13:48:00,
2013-10-31 06:53:00,48.0,10.9,30.06,NNE,31,1.0,2.2,22,0.00,,,-99.99,FreeWX-Wi 1.02,2013-10-31 13:53:00,
2013-10-31 06:58:00,47.8,10.9,30.06,North,-999,0.0,2.2,22,0.00,,,-99.99,FreeWX-Wi 1.02,2013-10-31 13:58:00,
2013-10-31 07:03:00,47.5,10.6,30.06,North,-999,0.0,2.2,22,0.00,,,-99.99,FreeWX-Wi 1.02,2013-10-31 14:03:00,
2013-10-31 07:08:00,47.7,10.8,30.06,North,-999,0.0,4.0,22,0.00,,,-99.99,FreeWX-Wi 1.02,2013-10-31 14:08:00,
2013-10-31 07:13:00,47.8,10.9,30.06,North,-999,0.0,4.0,22,0.00,,,-99.99,FreeWX-Wi 1.02,2013-10-31 14:13:00,
2013-10-31 07:18:00,48.0,10.9,30.06,North,-999,0.0,3.1,22,0.00,,,-99.99,FreeWX-Wi 1.02,2013-10-31 14:18:00,
2013-10-31 07:23:00,48.4,10.2,30.06,North,-999,0.0,3.1,21,0.00,,,-99.99,FreeWX-Wi 1.02,2013-10-31 14:23:00,
2013-10-31 07:28:00,48.7,10.6,30.06,NE,34,1.0,3.1,21,0.00,,,-99.99,FreeWX-Wi 1.02,2013-10-31 14:28:00,
2013-10-31 07:33:00,48.9,10.8,30.06,NE,34,1.0,3.1,21,0.00,,,-99.99,FreeWX-Wi 1.02,2013-10-31 14:33:00,
2013-10-31 07:38:00,49.3,10.9,30.06,NE,34,1.0,2.7,21,0.00,,,-99.99,FreeWX-Wi 1.02,2013-10-31 14:38:00,
2013-10-31 07:43:00,49.6,11.3,30.06,North,-999,0.0,0.0,21,0.00,,,-99.99,FreeWX-Wi 1.02,2013-10-31 14:43:00,
2013-10-31 07:48:00,49.8,11.5,30.06,NE,34,1.0,4.0,21,0.00,,,-99.99,FreeWX-Wi 1.02,2013-10-31 14:48:00,
2013-10-31 07:53:00,50.2,11.8,30.06,NE,34,1.0,2.7,21,0.00,,,-99.99,FreeWX-Wi 1.02,2013-10-31 14:53:00,
2013-10-31 07:58:00,50.7,12.2,30.06,North,-999,0.0,3.1,21,0.00,,,-99.99,FreeWX-Wi 1.02,2013-10-31 14:58:00,
2013-10-31 08:03:00,51.3,12.7,30.06,North,-999,0.0,0.0,21,0.00,,,-99.99,FreeWX-Wi 1.02,2013-10-31 15:03:00,
2013-10-31 08:08:00,51.6,12.9,30.09,North,-999,0.0,0.0,21,0.00,,,-99.99,FreeWX-Wi 1.02,2013-10-31 15:08:00,
2013-10-31 08:13:00,52.3,13.6,30.09,North,-999,0.0,3.1,21,0.00,,,-99.99,FreeWX-Wi 1.02,2013-10-31 15:13:00,
2013-10-31 08:18:00,53.1,14.2,30.09,North,-999,0.0,2.7,21,0.00,,,-99.99,FreeWX-Wi 1.02,2013-10-31 15:18:00,
2013-10-31 08:23:00,54.3,14.2,30.09,North,-999,0.0,0.0,20,0.00,,,-99.99,FreeWX-Wi 1.02,2013-10-31 15:23:00,
2013-10-31 08:28:00,54.9,14.5,30.09,North,-999,0.0,0.0,20,0.00,,,-99.99,FreeWX-Wi 1.02,2013-10-31 15:28:00,
2013-10-31 08:33:00,55.6,15.1,30.09,North,-999,0.0,0.0,20,0.00,,,-99.99,FreeWX-Wi 1.02,2013-10-31 15:33:00,
2013-10-31 08:38:00,56.3,15.8,30.09,North,-999,0.0,0.0,20,0.00,,,-99.99,FreeWX-Wi 1.02,2013-10-31 15:38:00,
2013-10-31 08:43:00,56.8,16.2,30.09,North,-999,0.0,0.0,20,0.00,,,-99.99,FreeWX-Wi 1.02,2013-10-31 15:43:00,
2013-10-31 08:48:00,57.9,16.0,30.09,North,-999,0.0,0.0,19,0.00,,,-99.99,FreeWX-Wi 1.02,2013-10-31 15:48:00,
2013-10-31 08:53:00,59.0,16.9,30.09,North,-999,0.0,0.0,19,0.00,,,-99.99,FreeWX-Wi 1.02,2013-10-31 15:53:00,
2013-10-31 08:58:00,59.7,17.4,30.09,North,-999,0.0,0.0,19,0.00,,,-99.99,FreeWX-Wi 1.02,2013-10-31 15:58:00,
2013-10-31 09:03:00,60.6,18.1,30.09,North,-999,0.0,3.1,19,0.00,,,-99.99,FreeWX-Wi 1.02,2013-10-31 16:03:00,
2013-10-31 09:08:00,61.9,19.2,30.09,North,-999,0.0,4.0,19,0.00,,,-99.99,FreeWX-Wi 1.02,2013-10-31 16:08:00,
2013-10-31 09:13:00,62.8,18.7,30.09,North,-999,0.0,3.1,18,0.00,,,-99.99,FreeWX-Wi 1.02,2013-10-31 16:13:00,
2013-10-31 09:18:00,63.3,19.0,30.09,North,-999,0.0,3.6,18,0.00,,,-99.99,FreeWX-Wi 1.02,2013-10-31 16:18:00,
2013-10-31 09:23:00,64.2,19.8,30.09,NE,34,1.0,4.0,18,0.00,,,-99.99,FreeWX-Wi 1.02,2013-10-31 16:23:00,
2013-10-31 09:28:00,64.9,20.5,30.09,NE,34,1.0,4.0,18,0.00,,,-99.99,FreeWX-Wi 1.02,2013-10-31 16:28:00,
2013-10-31 09:33:00,65.5,20.8,30.09,NE,35,1.0,3.1,18,0.00,,,-99.99,FreeWX-Wi 1.02,2013-10-31 16:33:00,
2013-10-31 09:38:00,66.2,20.1,30.09,NE,35,1.0,3.6,17,0.00,,,-99.99,FreeWX-Wi 1.02,2013-10-31 16:38:00,
2013-10-31 09:43:00,66.6,20.5,30.09,NE,36,2.0,4.9,17,0.00,,,-99.99,FreeWX-Wi 1.02,2013-10-31 16:43:00,
2013-10-31 09:48:00,67.1,20.8,30.09,NE,40,2.0,4.5,17,0.00,,,-99.99,FreeWX-Wi 1.02,2013-10-31 16:48:00,
2013-10-31 09:53:00,67.6,21.2,30.09,NE,43,2.0,4.0,17,0.00,,,-99.99,FreeWX-Wi 1.02,2013-10-31 16:53:00,
2013-10-31 09:58:00,68.0,21.6,30.09,NE,47,2.0,4.0,17,0.00,,,-99.99,FreeWX-Wi 1.02,2013-10-31 16:58:00,
2013-10-31 10:03:00,68.5,21.9,30.09,NE,51,2.0,3.6,17,0.00,,,-99.99,FreeWX-Wi 1.02,2013-10-31 17:03:00,
2013-10-31 10:08:00,69.3,22.6,30.09,ENE,57,2.0,5.8,17,0.00,,,-99.99,FreeWX-Wi 1.02,2013-10-31 17:08:00,
2013-10-31 10:18:00,69.1,22.5,30.09,ENE,75,2.0,4.0,17,0.00,,,-99.99,FreeWX-Wi 1.02,2013-10-31 17:18:00,
2013-10-31 10:23:00,69.6,22.8,30.09,East,83,2.0,3.6,17,0.00,,,-99.99,FreeWX-Wi 1.02,2013-10-31 17:23:00,
2013-10-31 10:28:00,69.8,23.0,30.09,East,92,2.0,5.4,17,0.00,,,-99.99,FreeWX-Wi 1.02,2013-10-31 17:28:00,
2013-10-31 10:33:00,70.3,23.5,30.09,ESE,104,2.0,8.1,17,0.00,,,-99.99,FreeWX-Wi 1.02,2013-10-31 17:33:00,
2013-10-31 10:38:00,71.1,24.1,30.09,ESE,119,3.0,6.3,17,0.00,,,-99.99,FreeWX-Wi 1.02,2013-10-31 17:38:00,
2013-10-31 10:43:00,71.4,24.3,30.09,SE,141,3.0,6.3,17,0.00,,,-99.99,FreeWX-Wi 1.02,2013-10-31 17:43:00,
2013-10-31 10:48:00,71.6,23.0,30.09,South,170,4.0,8.1,16,0.00,,,-99.99,FreeWX-Wi 1.02,2013-10-31 17:48:00,
2013-10-31 10:53:00,72.0,23.4,30.09,SSW,196,4.0,7.6,16,0.00,,,-99.99,FreeWX-Wi 1.02,2013-10-31 17:53:00,
2013-10-31 10:58:00,72.1,23.5,30.09,SW,216,5.0,8.3,16,0.00,,,-99.99,FreeWX-Wi 1.02,2013-10-31 17:58:00,
2013-10-31 11:03:00,72.3,23.5,30.09,SW,227,5.0,8.3,16,0.00,,,-99.99,FreeWX-Wi 1.02,2013-10-31 18:03:00,
2013-10-31 11:08:00,72.9,24.1,30.12,SW,233,5.0,8.7,16,0.00,,,-99.99,FreeWX-Wi 1.02,2013-10-31 18:08:00,
2013-10-31 11:13:00,73.0,24.3,30.12,SW,235,5.0,7.6,16,0.00,,,-99.99,FreeWX-Wi 1.02,2013-10-31 18:13:00,
2013-10-31 11:18:00,73.2,24.3,30.12,WSW,238,5.0,8.1,16,0.00,,,-99.99,FreeWX-Wi 1.02,2013-10-31 18:18:00,
2013-10-31 11:23:00,73.4,24.4,30.09,WSW,237,5.0,8.3,16,0.00,,,-99.99,FreeWX-Wi 1.02,2013-10-31 18:23:00,
2013-10-31 11:28:00,73.8,24.8,30.09,SW,234,5.0,8.3,16,0.00,,,-99.99,FreeWX-Wi 1.02,2013-10-31 18:28:00,
2013-10-31 11:33:00,74.1,25.0,30.09,SW,228,5.0,8.1,16,0.00,,,-99.99,FreeWX-Wi 1.02,2013-10-31 18:33:00,
2013-10-31 11:38:00,74.1,25.0,30.09,SW,218,5.0,7.6,16,0.00,,,-99.99,FreeWX-Wi 1.02,2013-10-31 18:38:00,
2013-10-31 11:43:00,74.5,25.3,30.09,SSW,208,5.0,7.6,16,0.00,,,-99.99,FreeWX-Wi 1.02,2013-10-31 18:43:00,
2013-10-31 11:48:00,74.8,25.7,30.09,SSW,198,5.0,6.3,16,0.00,,,-99.99,FreeWX-Wi 1.02,2013-10-31 18:48:00,
2013-10-31 11:53:00,74.8,25.7,30.09,South,189,5.0,8.1,16,0.00,,,-99.99,FreeWX-Wi 1.02,2013-10-31 18:53:00,
2013-10-31 11:58:00,75.2,24.4,30.09,South,173,5.0,8.7,15,0.00,,,-99.99,FreeWX-Wi 1.02,2013-10-31 18:58:00,
2013-10-31 12:03:00,75.4,24.4,30.09,SSE,168,4.0,7.6,15,0.00,,,-99.99,FreeWX-Wi 1.02,2013-10-31 19:03:00,
2013-10-31 12:08:00,75.7,24.8,30.09,SSE,164,4.0,7.6,15,0.00,,,-99.99,FreeWX-Wi 1.02,2013-10-31 19:08:00,
2013-10-31 12:13:00,75.7,24.8,30.09,SSE,158,4.0,5.8,15,0.00,,,-99.99,FreeWX-Wi 1.02,2013-10-31 19:13:00,
2013-10-31 12:18:00,75.6,24.6,30.09,SSE,151,3.0,6.3,15,0.00,,,-99.99,FreeWX-Wi 1.02,2013-10-31 19:18:00,
2013-10-31 12:23:00,75.7,24.8,30.09,SSE,158,3.0,6.7,15,0.00,,,-99.99,FreeWX-Wi 1.02,2013-10-31 19:23:00,
2013-10-31 12:28:00,76.3,25.2,30.09,SSE,164,3.0,6.7,15,0.00,,,-99.99,FreeWX-Wi 1.02,2013-10-31 19:28:00,
2013-10-31 12:33:00,76.3,25.2,30.09,SSE,167,3.0,6.3,15,0.00,,,-99.99,FreeWX-Wi 1.02,2013-10-31 19:33:00,
2013-10-31 12:38:00,76.6,25.5,30.09,South,172,3.0,6.3,15,0.00,,,-99.99,FreeWX-Wi 1.02,2013-10-31 19:38:00,
2013-10-31 12:43:00,76.6,25.5,30.09,South,174,4.0,6.7,15,0.00,,,-99.99,FreeWX-Wi 1.02,2013-10-31 19:43:00,
2013-10-31 12:48:00,76.6,25.5,30.09,South,170,4.0,6.3,15,0.00,,,-99.99,FreeWX-Wi 1.02,2013-10-31 19:48:00,
2013-10-31 12:53:00,76.8,25.7,30.09,SSE,164,4.0,7.6,15,0.00,,,-99.99,FreeWX-Wi 1.02,2013-10-31 19:53:00,
2013-10-31 12:58:00,77.0,25.9,30.09,SSE,166,3.0,5.4,15,0.00,,,-99.99,FreeWX-Wi 1.02,2013-10-31 19:58:00,
2013-10-31 13:03:00,77.5,26.2,30.09,South,174,3.0,4.0,15,0.00,,,-99.99,FreeWX-Wi 1.02,2013-10-31 20:03:00,
2013-10-31 13:08:00,78.1,26.6,30.09,SSE,162,3.0,7.6,15,0.00,,,-99.99,FreeWX-Wi 1.02,2013-10-31 20:08:00,
2013-10-31 13:13:00,78.1,26.6,30.09,SSE,165,3.0,8.1,15,0.00,,,-99.99,FreeWX-Wi 1.02,2013-10-31 20:13:00,
2013-10-31 13:18:00,78.4,27.0,30.09,South,170,3.0,8.7,15,0.00,,,-99.99,FreeWX-Wi 1.02,2013-10-31 20:18:00,
2013-10-31 13:23:00,78.6,27.1,30.06,SSE,163,3.0,7.6,15,0.00,,,-99.99,FreeWX-Wi 1.02,2013-10-31 20:23:00,
2013-10-31 13:28:00,78.4,27.0,30.06,SSE,154,3.0,7.6,15,0.00,,,-99.99,FreeWX-Wi 1.02,2013-10-31 20:28:00,
2013-10-31 13:33:00,78.3,26.8,30.06,SSE,157,4.0,6.3,15,0.00,,,-99.99,FreeWX-Wi 1.02,2013-10-31 20:33:00,
2013-10-31 13:38:00,78.4,27.0,30.06,South,170,4.0,8.1,15,0.00,,,-99.99,FreeWX-Wi 1.02,2013-10-31 20:38:00,
2013-10-31 13:43:00,78.3,26.8,30.06,South,173,3.0,5.4,15,0.00,,,-99.99,FreeWX-Wi 1.02,2013-10-31 20:43:00,
2013-10-31 13:48:00,78.6,27.1,30.06,South,179,3.0,5.4,15,0.00,,,-99.99,FreeWX-Wi 1.02,2013-10-31 20:48:00,
2013-10-31 13:53:00,78.6,27.1,30.06,South,188,3.0,8.3,15,0.00,,,-99.99,FreeWX-Wi 1.02,2013-10-31 20:53:00,
2013-10-31 13:58:00,79.2,27.5,30.06,South,187,3.0,8.3,15,0.00,,,-99.99,FreeWX-Wi 1.02,2013-10-31 20:58:00,
2013-10-31 14:03:00,79.2,27.5,30.06,SSW,194,4.0,7.6,15,0.00,,,-99.99,FreeWX-Wi 1.02,2013-10-31 21:03:00,
2013-10-31 14:08:00,79.5,27.9,30.06,SSW,200,4.0,8.3,15,0.00,,,-99.99,FreeWX-Wi 1.02,2013-10-31 21:08:00,
2013-10-31 14:13:00,79.7,28.0,30.06,SSW,206,4.0,7.6,15,0.00,,,-99.99,FreeWX-Wi 1.02,2013-10-31 21:13:00,
2013-10-31 14:18:00,79.7,28.0,30.06,SSW,211,5.0,8.7,15,0.00,,,-99.99,FreeWX-Wi 1.02,2013-10-31 21:18:00,
2013-10-31 14:23:00,79.5,27.9,30.06,SW,222,5.0,5.8,15,0.00,,,-99.99,FreeWX-Wi 1.02,2013-10-31 21:23:00,
2013-10-31 14:28:00,79.7,28.0,30.06,SW,225,4.0,6.7,15,0.00,,,-99.99,FreeWX-Wi 1.02,2013-10-31 21:28:00,
2013-10-31 14:33:00,79.7,28.0,30.06,SW,214,4.0,8.3,15,0.00,,,-99.99,FreeWX-Wi 1.02,2013-10-31 21:33:00,
2013-10-31 14:38:00,79.5,27.9,30.06,SSW,211,4.0,8.7,15,0.00,,,-99.99,FreeWX-Wi 1.02,2013-10-31 21:38:00,
2013-10-31 14:43:00,79.7,28.0,30.06,SW,218,4.0,8.1,15,0.00,,,-99.99,FreeWX-Wi 1.02,2013-10-31 21:43:00,
2013-10-31 14:48:00,79.5,27.9,30.06,SW,222,4.0,7.6,15,0.00,,,-99.99,FreeWX-Wi 1.02,2013-10-31 21:48:00,
2013-10-31 14:53:00,79.2,27.5,30.06,SW,222,3.0,4.0,15,0.00,,,-99.99,FreeWX-Wi 1.02,2013-10-31 21:53:00,
2013-10-31 14:58:00,79.0,27.3,30.06,SW,227,2.0,5.4,15,0.00,,,-99.99,FreeWX-Wi 1.02,2013-10-31 21:58:00,
2013-10-31 15:03:00,79.2,27.5,30.06,SW,236,2.0,5.4,15,0.00,,,-99.99,FreeWX-Wi 1.02,2013-10-31 22:03:00,
2013-10-31 15:08:00,79.5,27.9,30.06,SW,232,2.0,5.8,15,0.00,,,-99.99,FreeWX-Wi 1.02,2013-10-31 22:08:00,
2013-10-31 15:13:00,79.9,28.0,30.06,SW,229,2.0,4.9,15,0.00,,,-99.99,FreeWX-Wi 1.02,2013-10-31 22:13:00,
2013-10-31 15:18:00,80.1,28.2,30.06,SW,223,2.0,5.4,15,0.00,,,-99.99,FreeWX-Wi 1.02,2013-10-31 22:18:00,
2013-10-31 15:23:00,80.2,28.4,30.06,SW,214,3.0,6.3,15,0.00,,,-99.99,FreeWX-Wi 1.02,2013-10-31 22:23:00,
2013-10-31 15:28:00,80.2,28.4,30.06,SSW,209,3.0,5.8,15,0.00,,,-99.99,FreeWX-Wi 1.02,2013-10-31 22:28:00,
2013-10-31 15:33:00,80.1,28.2,30.06,SSW,209,2.0,4.0,15,0.00,,,-99.99,FreeWX-Wi 1.02,2013-10-31 22:33:00,
2013-10-31 15:38:00,80.1,28.2,30.06,SSW,206,2.0,5.4,15,0.00,,,-99.99,FreeWX-Wi 1.02,2013-10-31 22:38:00,
2013-10-31 15:43:00,80.1,28.2,30.06,SSW,208,3.0,5.4,15,0.00,,,-99.99,FreeWX-Wi 1.02,2013-10-31 22:43:00,
2013-10-31 15:48:00,79.3,27.7,30.06,SW,218,2.0,3.6,15,0.00,,,-99.99,FreeWX-Wi 1.02,2013-10-31 22:48:00,
2013-10-31 15:53:00,78.8,27.3,30.06,SW,226,2.0,4.0,15,0.00,,,-99.99,FreeWX-Wi 1.02,2013-10-31 22:53:00,
2013-10-31 15:58:00,78.1,26.6,30.06,SW,226,2.0,4.9,15,0.00,,,-99.99,FreeWX-Wi 1.02,2013-10-31 22:58:00,
2013-10-31 16:03:00,77.2,25.9,30.06,SW,224,2.0,5.4,15,0.00,,,-99.99,FreeWX-Wi 1.02,2013-10-31 23:03:00,
2013-10-31 16:08:00,77.2,25.9,30.03,SW,221,2.0,8.1,15,0.00,,,-99.99,FreeWX-Wi 1.02,2013-10-31 23:08:00,
2013-10-31 16:13:00,77.7,26.4,30.03,SSW,211,2.0,5.8,15,0.00,,,-99.99,FreeWX-Wi 1.02,2013-10-31 23:13:00,
2013-10-31 16:18:00,77.5,26.2,30.03,SSW,207,3.0,7.6,15,0.00,,,-99.99,FreeWX-Wi 1.02,2013-10-31 23:18:00,
2013-10-31 16:23:00,76.8,25.7,30.06,SSW,205,3.0,5.8,15,0.00,,,-99.99,FreeWX-Wi 1.02,2013-10-31 23:23:00,
2013-10-31 16:28:00,76.1,25.2,30.06,SSW,212,3.0,5.4,15,0.00,,,-99.99,FreeWX-Wi 1.02,2013-10-31 23:28:00,
2013-10-31 16:33:00,75.2,24.4,30.06,SW,219,3.0,4.0,15,0.00,,,-99.99,FreeWX-Wi 1.02,2013-10-31 23:33:00,
2013-10-31 16:38:00,74.8,25.7,30.03,SW,225,3.0,6.3,16,0.00,,,-99.99,FreeWX-Wi 1.02,2013-10-31 23:38:00,
2013-10-31 16:43:00,74.1,25.0,30.03,SW,229,2.0,3.6,16,0.00,,,-99.99,FreeWX-Wi 1.02,2013-10-31 23:43:00,
2013-10-31 16:48:00,73.6,24.6,30.03,SW,231,2.0,5.4,16,0.00,,,-99.99,FreeWX-Wi 1.02,2013-10-31 23:48:00,
2013-10-31 16:53:00,73.2,24.3,30.03,SW,232,2.0,4.9,16,0.00,,,-99.99,FreeWX-Wi 1.02,2013-10-31 23:53:00,
2013-10-31 16:58:00,72.5,23.7,30.03,SW,233,2.0,4.0,16,0.00,,,-99.99,FreeWX-Wi 1.02,2013-10-31 23:58:00,
2013-10-31 17:03:00,72.3,23.5,30.03,SW,235,2.0,4.9,16,0.00,,,-99.99,FreeWX-Wi 1.02,2013-11-01 00:03:00,
2013-10-31 17:08:00,71.8,23.2,30.03,WSW,237,2.0,4.0,16,0.00,,,-99.99,FreeWX-Wi 1.02,2013-11-01 00:08:00,
2013-10-31 17:13:00,71.2,24.3,30.03,WSW,239,2.0,4.0,17,0.00,,,-99.99,FreeWX-Wi 1.02,2013-11-01 00:13:00,
2013-10-31 17:18:00,71.1,24.1,30.03,WSW,238,2.0,4.5,17,0.00,,,-99.99,FreeWX-Wi 1.02,2013-11-01 00:18:00,
2013-10-31 17:23:00,71.6,23.0,30.03,WSW,237,2.0,5.4,16,0.00,,,-99.99,FreeWX-Wi 1.02,2013-11-01 00:23:00,
2013-10-31 17:28:00,71.2,24.3,30.03,SW,233,2.0,4.0,17,0.00,,,-99.99,FreeWX-Wi 1.02,2013-11-01 00:28:00,
2013-10-31 17:33:00,70.9,23.9,30.03,SW,230,2.0,4.0,17,0.00,,,-99.99,FreeWX-Wi 1.02,2013-11-01 00:33:00,
2013-10-31 17:38:00,69.6,22.8,30.03,SW,228,1.0,0.0,17,0.00,,,-99.99,FreeWX-Wi 1.02,2013-11-01 00:38:00,
2013-10-31 17:43:00,68.5,21.9,30.03,SW,224,1.0,0.0,17,0.00,,,-99.99,FreeWX-Wi 1.02,2013-11-01 00:43:00,
2013-10-31 17:48:00,67.6,21.2,30.03,North,-999,0.0,0.0,17,0.00,,,-99.99,FreeWX-Wi 1.02,2013-11-01 00:48:00,
2013-10-31 17:53:00,66.9,20.7,30.03,North,-999,0.0,0.0,17,0.00,,,-99.99,FreeWX-Wi 1.02,2013-11-01 00:53:00,
2013-10-31 17:58:00,66.4,20.3,30.03,North,-999,0.0,0.0,17,0.00,,,-99.99,FreeWX-Wi 1.02,2013-11-01 00:58:00,
2013-10-31 18:03:00,66.2,20.1,30.03,North,-999,0.0,0.0,17,0.00,,,-99.99,FreeWX-Wi 1.02,2013-11-01 01:03:00,
2013-10-31 18:08:00,66.0,21.4,30.06,North,-999,0.0,0.0,18,0.00,,,-99.99,FreeWX-Wi 1.02,2013-11-01 01:08:00,
2013-10-31 18:13:00,65.8,21.2,30.06,North,-999,0.0,0.0,18,0.00,,,-99.99,FreeWX-Wi 1.02,2013-11-01 01:13:00,
2013-10-31 18:18:00,65.5,20.8,30.06,North,-999,0.0,0.0,18,0.00,,,-99.99,FreeWX-Wi 1.02,2013-11-01 01:18:00,
2013-10-31 18:23:00,65.3,20.7,30.06,North,-999,0.0,2.7,18,0.00,,,-99.99,FreeWX-Wi 1.02,2013-11-01 01:23:00,
2013-10-31 18:28:00,65.1,20.5,30.06,North,-999,0.0,2.7,18,0.00,,,-99.99,FreeWX-Wi 1.02,2013-11-01 01:28:00,
2013-10-31 18:33:00,64.9,20.5,30.06,North,-999,0.0,0.0,18,0.00,,,-99.99,FreeWX-Wi 1.02,2013-11-01 01:33:00,
2013-10-31 18:38:00,64.9,20.5,30.06,North,-999,0.0,3.6,18,0.00,,,-99.99,FreeWX-Wi 1.02,2013-11-01 01:38:00,
2013-10-31 18:43:00,64.9,20.5,30.06,North,-999,0.0,2.7,18,0.00,,,-99.99,FreeWX-Wi 1.02,2013-11-01 01:43:00,
2013-10-31 18:48:00,64.8,20.3,30.06,North,-999,0.0,2.7,18,0.00,,,-99.99,FreeWX-Wi 1.02,2013-11-01 01:48:00,
2013-10-31 18:53:00,64.8,20.3,30.06,North,-999,0.0,0.0,18,0.00,,,-99.99,FreeWX-Wi 1.02,2013-11-01 01:53:00,
2013-10-31 18:58:00,64.4,19.9,30.06,North,-999,0.0,0.0,18,0.00,,,-99.99,FreeWX-Wi 1.02,2013-11-01 01:58:00,
2013-10-31 19:03:00,63.9,19.6,30.06,North,-999,0.0,0.0,18,0.00,,,-99.99,FreeWX-Wi 1.02,2013-11-01 02:03:00,
2013-10-31 19:08:00,63.7,19.4,30.06,North,-999,0.0,0.0,18,0.00,,,-99.99,FreeWX-Wi 1.02,2013-11-01 02:08:00,
2013-10-31 19:13:00,63.9,19.6,30.06,North,-999,0.0,0.0,18,0.00,,,-99.99,FreeWX-Wi 1.02,2013-11-01 02:13:00,
2013-10-31 19:18:00,63.9,19.6,30.06,North,-999,0.0,4.0,18,0.00,,,-99.99,FreeWX-Wi 1.02,2013-11-01 02:18:00,
2013-10-31 19:23:00,63.1,19.0,30.06,North,-999,0.0,0.0,18,0.00,,,-99.99,FreeWX-Wi 1.02,2013-11-01 02:23:00,
2013-10-31 19:28:00,62.6,18.5,30.06,North,-999,0.0,0.0,18,0.00,,,-99.99,FreeWX-Wi 1.02,2013-11-01 02:28:00,
2013-10-31 19:33:00,62.1,19.4,30.06,North,-999,0.0,0.0,19,0.00,,,-99.99,FreeWX-Wi 1.02,2013-11-01 02:33:00,
2013-10-31 19:38:00,62.2,19.4,30.06,North,-999,0.0,2.2,19,0.00,,,-99.99,FreeWX-Wi 1.02,2013-11-01 02:38:00,
2013-10-31 19:43:00,61.5,18.9,30.06,North,-999,0.0,2.7,19,0.00,,,-99.99,FreeWX-Wi 1.02,2013-11-01 02:43:00,
2013-10-31 19:48:00,62.2,19.4,30.06,North,-999,0.0,2.7,19,0.00,,,-99.99,FreeWX-Wi 1.02,2013-11-01 02:48:00,
2013-10-31 19:53:00,61.7,19.0,30.06,North,-999,0.0,0.0,19,0.00,,,-99.99,FreeWX-Wi 1.02,2013-11-01 02:53:00,
2013-10-31 19:58:00,61.9,19.2,30.06,North,-999,0.0,0.0,19,0.00,,,-99.99,FreeWX-Wi 1.02,2013-11-01 02:58:00,
2013-10-31 20:03:00,61.5,18.9,30.06,North,-999,0.0,3.6,19,0.00,,,-99.99,FreeWX-Wi 1.02,2013-11-01 03:03:00,
2013-10-31 20:08:00,61.0,18.5,30.06,North,-999,0.0,0.0,19,0.00,,,-99.99,FreeWX-Wi 1.02,2013-11-01 03:08:00,
2013-10-31 20:13:00,61.5,18.9,30.06,North,-999,0.0,5.8,19,0.00,,,-99.99,FreeWX-Wi 1.02,2013-11-01 03:13:00,
2013-10-31 20:18:00,61.7,19.0,30.06,North,-999,0.0,3.1,19,0.00,,,-99.99,FreeWX-Wi 1.02,2013-11-01 03:18:00,
2013-10-31 20:23:00,61.9,19.2,30.06,North,-999,0.0,2.2,19,0.00,,,-99.99,FreeWX-Wi 1.02,2013-11-01 03:23:00,
2013-10-31 20:28:00,61.7,19.0,30.06,North,-999,0.0,0.0,19,0.00,,,-99.99,FreeWX-Wi 1.02,2013-11-01 03:28:00,
2013-10-31 20:33:00,61.0,18.5,30.06,North,-999,0.0,3.1,19,0.00,,,-99.99,FreeWX-Wi 1.02,2013-11-01 03:33:00,
2013-10-31 20:38:00,60.4,18.0,30.06,North,-999,0.0,0.0,19,0.00,,,-99.99,FreeWX-Wi 1.02,2013-11-01 03:38:00,
2013-10-31 20:43:00,59.9,17.6,30.06,North,-999,0.0,0.0,19,0.00,,,-99.99,FreeWX-Wi 1.02,2013-11-01 03:43:00,
2013-10-31 20:48:00,59.7,17.4,30.06,North,-999,0.0,0.0,19,0.00,,,-99.99,FreeWX-Wi 1.02,2013-11-01 03:48:00,
2013-10-31 20:53:00,59.4,17.1,30.06,North,-999,0.0,0.0,19,0.00,,,-99.99,FreeWX-Wi 1.02,2013-11-01 03:53:00,
2013-10-31 20:58:00,59.5,17.2,30.06,North,-999,0.0,4.0,19,0.00,,,-99.99,FreeWX-Wi 1.02,2013-11-01 03:58:00,
2013-10-31 21:03:00,59.0,16.9,30.06,North,-999,0.0,0.0,19,0.00,,,-99.99,FreeWX-Wi 1.02,2013-11-01 04:03:00,
2013-10-31 21:08:00,58.5,16.3,30.06,North,-999,0.0,0.0,19,0.00,,,-99.99,FreeWX-Wi 1.02,2013-11-01 04:08:00,
2013-10-31 21:13:00,58.1,16.2,30.06,North,-999,0.0,0.0,19,0.00,,,-99.99,FreeWX-Wi 1.02,2013-11-01 04:13:00,
2013-10-31 21:18:00,57.6,15.6,30.06,North,-999,0.0,0.0,19,0.00,,,-99.99,FreeWX-Wi 1.02,2013-11-01 04:18:00,
2013-10-31 21:23:00,57.6,15.6,30.06,North,-999,0.0,0.0,19,0.00,,,-99.99,FreeWX-Wi 1.02,2013-11-01 04:23:00,
2013-10-31 21:28:00,57.0,16.3,30.06,North,-999,0.0,0.0,20,0.00,,,-99.99,FreeWX-Wi 1.02,2013-11-01 04:28:00,
2013-10-31 21:33:00,57.0,16.3,30.06,North,-999,0.0,4.0,20,0.00,,,-99.99,FreeWX-Wi 1.02,2013-11-01 04:33:00,
2013-10-31 21:38:00,57.0,16.3,30.09,North,-999,0.0,2.2,20,0.00,,,-99.99,FreeWX-Wi 1.02,2013-11-01 04:38:00,
2013-10-31 21:43:00,57.0,16.3,30.09,North,-999,0.0,0.0,20,0.00,,,-99.99,FreeWX-Wi 1.02,2013-11-01 04:43:00,
2013-10-31 21:48:00,56.8,16.2,30.09,North,-999,0.0,3.1,20,0.00,,,-99.99,FreeWX-Wi 1.02,2013-11-01 04:48:00,
2013-10-31 21:53:00,56.7,16.0,30.09,North,-999,0.0,0.0,20,0.00,,,-99.99,FreeWX-Wi 1.02,2013-11-01 04:53:00,
2013-10-31 21:59:00,56.5,16.0,30.09,North,-999,0.0,0.0,20,0.00,,,-99.99,FreeWX-Wi 1.02,2013-11-01 04:59:00,
2013-10-31 22:04:00,56.5,16.0,30.09,North,-999,0.0,0.0,20,0.00,,,-99.99,FreeWX-Wi 1.02,2013-11-01 05:04:00,
2013-10-31 22:09:00,56.1,15.6,30.09,North,-999,0.0,0.0,20,0.00,,,-99.99,FreeWX-Wi 1.02,2013-11-01 05:09:00,
2013-10-31 22:14:00,55.9,15.4,30.09,North,-999,0.0,3.6,20,0.00,,,-99.99,FreeWX-Wi 1.02,2013-11-01 05:14:00,
2013-10-31 22:19:00,56.5,16.0,30.09,North,-999,0.0,0.0,20,0.00,,,-99.99,FreeWX-Wi 1.02,2013-11-01 05:19:00,
2013-10-31 22:24:00,56.3,15.8,30.09,North,-999,0.0,3.6,20,0.00,,,-99.99,FreeWX-Wi 1.02,2013-11-01 05:24:00,
2013-10-31 22:29:00,56.3,15.8,30.09,SW,221,1.0,4.0,20,0.00,,,-99.99,FreeWX-Wi 1.02,2013-11-01 05:29:00,
2013-10-31 22:34:00,56.7,16.0,30.09,SW,221,1.0,2.7,20,0.00,,,-99.99,FreeWX-Wi 1.02,2013-11-01 05:34:00,
2013-10-31 22:39:00,56.3,15.8,30.09,SW,220,1.0,0.0,20,0.00,,,-99.99,FreeWX-Wi 1.02,2013-11-01 05:39:00,
2013-10-31 22:44:00,56.1,15.6,30.09,North,-999,0.0,0.0,20,0.00,,,-99.99,FreeWX-Wi 1.02,2013-11-01 05:44:00,
2013-10-31 22:49:00,55.9,15.4,30.09,North,-999,0.0,0.0,20,0.00,,,-99.99,FreeWX-Wi 1.02,2013-11-01 05:49:00,
2013-10-31 22:54:00,55.6,15.1,30.09,North,-999,0.0,0.0,20,0.00,,,-99.99,FreeWX-Wi 1.02,2013-11-01 05:54:00,
2013-10-31 22:59:00,55.0,14.7,30.09,North,-999,0.0,4.0,20,0.00,,,-99.99,FreeWX-Wi 1.02,2013-11-01 05:59:00,
2013-10-31 23:04:00,54.5,14.2,30.09,North,-999,0.0,3.1,20,0.00,,,-99.99,FreeWX-Wi 1.02,2013-11-01 06:04:00,
2013-10-31 23:09:00,54.5,14.2,30.09,North,-999,0.0,2.7,20,0.00,,,-99.99,FreeWX-Wi 1.02,2013-11-01 06:09:00,
2013-10-31 23:14:00,54.3,14.2,30.09,SW,219,1.0,3.1,20,0.00,,,-99.99,FreeWX-Wi 1.02,2013-11-01 06:14:00,
2013-10-31 23:19:00,54.3,14.2,30.09,SW,219,1.0,0.0,20,0.00,,,-99.99,FreeWX-Wi 1.02,2013-11-01 06:19:00,
2013-10-31 23:24:00,54.3,14.2,30.09,SW,218,1.0,2.7,20,0.00,,,-99.99,FreeWX-Wi 1.02,2013-11-01 06:24:00,
2013-10-31 23:29:00,54.3,14.2,30.09,SW,218,1.0,4.0,20,0.00,,,-99.99,FreeWX-Wi 1.02,2013-11-01 06:29:00,
2013-10-31 23:34:00,54.7,14.4,30.09,SW,218,1.0,3.6,20,0.00,,,-99.99,FreeWX-Wi 1.02,2013-11-01 06:34:00,
2013-10-31 23:39:00,54.5,14.2,30.09,SW,218,1.0,3.1,20,0.00,,,-99.99,FreeWX-Wi 1.02,2013-11-01 06:39:00,
2013-10-31 23:44:00,54.3,14.2,30.09,SW,218,1.0,4.0,20,0.00,,,-99.99,FreeWX-Wi 1.02,2013-11-01 06:44:00,
2013-10-31 23:49:00,54.5,14.2,30.09,SW,218,1.0,3.1,20,0.00,,,-99.99,FreeWX-Wi 1.02,2013-11-01 06:49:00,
2013-10-31 23:54:00,54.1,14.0,30.09,SW,218,1.0,3.6,20,0.00,,,-99.99,FreeWX-Wi 1.02,2013-11-01 06:54:00,
2013-10-31 23:59:00,53.8,13.6,30.09,SW,218,1.0,0.0,20,0.00,,,-99.99,FreeWX-Wi 1.02,2013-11-01 06:59:00,